Springfield, MO

4:21 PM CST on November 21, 2017 (GMT -0600)
Springfield-Branson Regional

Weather History for KSGF - March, 2012

Change the Weather History Date:

Tuesday, March 20, 2012

  Actual Average Record
Temperature  
Mean Temperature 63 °F 48 °F  
Max Temperature 70 °F 59 °F 92 °F (1907)
Min Temperature 55 °F 37 °F 10 °F (1965)
Degree Days  
Heating Degree Days 2 17  
Month to date heating degree days 193 407  
Since 1 July heating degree days 3400 4000  
Cooling Degree Days 0 0  
Month to date cooling degree days 22 0  
Year to date cooling degree days 22 0  
Growing Degree Days 12 (Base 50)    
Moisture  
Dew Point 55 °F    
Average Humidity 82    
Maximum Humidity 100    
Minimum Humidity 63    
Precipitation  
Precipitation 1.26 in 0.11 in 1.71 in (1955)
Month to date precipitation 2.14 2.23  
Year to date precipitation 5.46 7.22  
Snow  
Snow 0.00 in - - ()
Month to date snowfall T  
Since 1 July snowfall 2.8  
Snow Depth 0.00 in    
Sea Level Pressure  
Sea Level Pressure 29.82 in    
Wind  
Wind Speed 10 mph (ESE)    
Max Wind Speed 29 mph    
Max Gust Speed 38 mph    
Visibility 8 miles    
Events Rain , Thunderstorm    
T = Trace of Precipitation, MM = Missing Value Source: NWS Daily Summary

Daily Weather History Graph

Daily Weather History Graph

Search for Another Location

Airport or City:

Trip Planner

Search our weather history database for the weather conditions in past years. The results will help you decide how hot, cold, wet, or windy it might be!

Date:

Astronomy

Mar. 20, 2012 Rise Set
Actual Time 7:16 AM CDT 7:25 PM CDT
Civil Twilight 6:50 AM CDT 7:51 PM CDT
Nautical Twilight 6:20 AM CDT 8:22 PM CDT
Astronomical Twilight 5:49 AM CDT 8:53 PM CDT
Moon 5:57 AM CDT (3/20) 5:55 PM CDT (3/20)
Length of Visible Light 13h 01m
Length of Day
12h 09m
Waning Crescent, 4% of the Moon is Illuminated
Mar 20
Waning Crescent
Mar 22
New
Mar 30
First Quarter
Apr 6
Full
Apr 13
Last Quarter

Hourly Weather History & Observations

Time (CDT) Temp. Dew Point Humidity Pressure Visibility Wind Dir Wind Speed Gust Speed Precip Events Conditions
12:08 AM 55.4 °F 53.6 °F 94% 29.86 in 2.0 mi WNW 10.4 mph 21.9 mph 0.24 in Rain , Thunderstorm Heavy Thunderstorms and Rain
12:11 AM 55.4 °F 53.6 °F 94% 29.86 in 3.0 mi WNW 10.4 mph 21.9 mph 0.24 in Rain , Thunderstorm Heavy Thunderstorms and Rain
12:43 AM 55.4 °F 53.6 °F 94% 29.83 in 10.0 mi NNE 5.8 mph - 0.30 in Rain Light Rain
12:52 AM 55.9 °F 54.0 °F 93% 29.82 in 10.0 mi NE 4.6 mph - 0.30 in Rain Light Rain
1:52 AM 55.9 °F 54.0 °F 93% 29.85 in 4.0 mi SE 8.1 mph - 0.08 in Rain Heavy Rain
2:52 AM 55.9 °F 54.0 °F 93% 29.83 in 6.0 mi East 5.8 mph - 0.16 in Rain Light Rain
3:52 AM 55.9 °F 54.0 °F 93% 29.84 in 10.0 mi SE 6.9 mph - 0.04 in Rain Light Rain
4:52 AM 55.0 °F 54.0 °F 96% 29.80 in 6.0 mi ENE 8.1 mph - 0.05 in Rain Rain
5:52 AM 55.0 °F 53.1 °F 93% 29.83 in 6.0 mi ESE 5.8 mph - 0.03 in Rain Rain
6:52 AM 55.4 °F 53.6 °F 94% 29.82 in 10.0 mi East 8.1 mph - N/A Rain Light Rain
7:52 AM 55.9 °F 53.1 °F 90% 29.81 in 10.0 mi ENE 9.2 mph - 0.01 in Rain Light Rain
8:02 AM 55.4 °F 53.6 °F 94% 29.82 in 10.0 mi East 10.4 mph - 0.00 in Rain Light Rain
8:52 AM 55.9 °F 53.1 °F 90% 29.79 in 10.0 mi ENE 8.1 mph - 0.00 in   Mostly Cloudy
9:28 AM 60.8 °F 55.4 °F 82% 29.78 in 10.0 mi East 12.7 mph - N/A   Mostly Cloudy
9:52 AM 62.1 °F 57.9 °F 86% 29.76 in 10.0 mi ESE 12.7 mph - N/A   Clear
10:52 AM 66.9 °F 57.0 °F 70% 29.74 in 10.0 mi SSE 25.3 mph 38.0 mph N/A   Mostly Cloudy
11:52 AM 68.0 °F 55.9 °F 65% 29.73 in 10.0 mi SE 23.0 mph 29.9 mph N/A   Mostly Cloudy
12:23 PM 60.8 °F 57.2 °F 88% 29.78 in 7.0 mi SW 15.0 mph 29.9 mph 0.00 in Rain Light Rain
12:52 PM 59.0 °F 55.9 °F 90% 29.80 in 7.0 mi SW 15.0 mph 23.0 mph 0.02 in Rain Light Rain
1:52 PM 60.1 °F 55.9 °F 86% 29.78 in 10.0 mi SE 9.2 mph - 0.05 in Rain Light Rain
2:52 PM 59.0 °F 55.9 °F 90% 29.78 in 5.0 mi ESE 12.7 mph - 0.04 in Rain Rain
3:52 PM 59.0 °F 55.9 °F 90% 29.80 in 10.0 mi SE 10.4 mph - 0.04 in Rain Light Rain
4:52 PM 59.0 °F 55.4 °F 88% 29.81 in 10.0 mi SE 6.9 mph - N/A   Overcast
5:52 PM 57.2 °F 55.4 °F 94% 29.83 in 7.0 mi South 3.5 mph - N/A Rain Rain
6:15 PM 57.2 °F 55.4 °F 94% 29.83 in 2.0 mi Calm Calm - 0.08 in Rain Rain
6:47 PM 57.2 °F 55.4 °F 94% 29.85 in 4.0 mi East 4.6 mph - 0.23 in Rain Rain
6:52 PM 57.0 °F 55.9 °F 96% 29.83 in 4.0 mi East 6.9 mph - 0.25 in Rain Rain
7:52 PM 57.0 °F 55.0 °F 93% 29.83 in 10.0 mi ENE 6.9 mph - 0.09 in Rain Light Rain
8:16 PM 57.2 °F 53.6 °F 88% 29.86 in 9.0 mi East 6.9 mph - 0.03 in Rain Light Rain
8:52 PM 55.9 °F 55.0 °F 97% 29.83 in 10.0 mi ENE 9.2 mph - 0.05 in Rain Light Rain
9:52 PM 57.0 °F 55.0 °F 93% 29.86 in 10.0 mi ESE 9.2 mph - 0.04 in Rain Light Rain
10:52 PM 57.2 °F 55.4 °F 94% 29.89 in 8.0 mi ESE 8.1 mph - N/A Rain Light Rain
11:52 PM 57.0 °F 55.0 °F 93% 29.88 in 8.0 mi SE 10.4 mph - 0.06 in Rain Rain